When you browse on this site, cookies collect data to enhance your experience and personalize the content and advertising you see.
Visit our Privacy Policy to learn more. By continuing to use the site, you agree to this use of cookies and data.
  • In United Kingdom
  • List of Countries
  • For 7 days
  • Water Temperature
  • Satellite Maps
  • Weather Map
  • Weather Widgets
  • user-avatar
    Login

    Hourly Weather Birmingham

    Today, 19 July, Friday

    Time Temperature Precipitation Wind Pressure Humidity
    00:00 +13°C° 0 mm 2 mps 746 mmHg 88%
    01:00 +13°C° 0 mm 2 mps 745 mmHg 89%
    02:00 +13°C° 0 mm 2 mps 745 mmHg 89%
    03:00 +12°C° 0 mm 2 mps 745 mmHg 90%
    04:00 +12°C° 0 mm 3 mps 745 mmHg 89%
    05:00 +13°C° 0 mm 3 mps 745 mmHg 88%
    06:00 +14°C° 0 mm 3 mps 745 mmHg 88%
    07:00 +14°C° 0.4 mm 4 mps 744 mmHg 87%
    08:00 +14°C° 0.4 mm 4 mps 744 mmHg 87%
    09:00 +14°C° 0.4 mm 5 mps 744 mmHg 87%
    10:00 +14°C° 0.9 mm 5 mps 744 mmHg 88%
    11:00 +15°C° 0.9 mm 6 mps 743 mmHg 89%
    12:00 +15°C° 0.9 mm 6 mps 743 mmHg 91%
    13:00 +17°C° 0.6 mm 7 mps 743 mmHg 87%
    14:00 +18°C° 0.6 mm 7 mps 743 mmHg 83%
    15:00 +21°C° 0.6 mm 7 mps 742 mmHg 80%
    16:00 +21°C° 0.6 mm 7 mps 742 mmHg 80%
    17:00 +20°C° 0.6 mm 7 mps 742 mmHg 81%
    18:00 +20°C° 0.6 mm 7 mps 742 mmHg 81%
    19:00 +19°C° 0 mm 6 mps 742 mmHg 83%
    20:00 +17°C° 0 mm 5 mps 742 mmHg 84%
    21:00 +16°C° 0 mm 5 mps 742 mmHg 85%
    22:00 +16°C° 0 mm 5 mps 742 mmHg 86%
    23:00 +15°C° 0 mm 5 mps 742 mmHg 87%

    Tomorrow, 20 July, Saturday

    Time Temperature Precipitation Wind Pressure Humidity
    00:00 +15°C° 0 mm 5 mps 741 mmHg 88%
    01:00 +15°C° 0 mm 5 mps 741 mmHg 89%
    02:00 +15°C° 0 mm 5 mps 741 mmHg 90%
    03:00 +14°C° 0 mm 5 mps 741 mmHg 91%
    04:00 +15°C° 0 mm 5 mps 741 mmHg 90%
    05:00 +15°C° 0 mm 6 mps 741 mmHg 90%
    06:00 +15°C° 0 mm 6 mps 741 mmHg 89%
    07:00 +16°C° 0 mm 6 mps 741 mmHg 83%
    08:00 +17°C° 0 mm 5 mps 741 mmHg 77%
    09:00 +19°C° 0 mm 5 mps 742 mmHg 71%
    10:00 +20°C° 0.4 mm 5 mps 742 mmHg 69%
    11:00 +21°C° 0.4 mm 5 mps 742 mmHg 67%
    12:00 +22°C° 0.4 mm 5 mps 743 mmHg 65%
    13:00 +22°C° 0.5 mm 4 mps 743 mmHg 64%
    14:00 +22°C° 0.5 mm 4 mps 743 mmHg 64%
    15:00 +22°C° 0.5 mm 4 mps 743 mmHg 63%
    16:00 +22°C° 0.2 mm 4 mps 744 mmHg 64%
    17:00 +21°C° 0.2 mm 4 mps 744 mmHg 66%
    18:00 +21°C° 0.2 mm 4 mps 745 mmHg 67%
    19:00 +19°C° 0 mm 3 mps 745 mmHg 72%
    20:00 +17°C° 0 mm 3 mps 746 mmHg 76%
    21:00 +16°C° 0 mm 2 mps 746 mmHg 81%
    22:00 +15°C° 0 mm 2 mps 747 mmHg 80%
    23:00 +14°C° 0 mm 2 mps 747 mmHg 79%

    Day after tomorrow, 21 July, Sunday

    Time Temperature Precipitation Wind Pressure Humidity
    00:00 +14°C° 0 mm 2 mps 748 mmHg 78%
    01:00 +13°C° 0 mm 2 mps 748 mmHg 80%
    02:00 +13°C° 0 mm 1 mps 748 mmHg 83%
    03:00 +13°C° 0 mm 1 mps 748 mmHg 85%
    04:00 +13°C° 0 mm 1 mps 749 mmHg 85%
    05:00 +14°C° 0 mm 2 mps 749 mmHg 84%
    06:00 +14°C° 0 mm 2 mps 750 mmHg 83%
    07:00 +16°C° 0 mm 2 mps 750 mmHg 78%
    08:00 +17°C° 0 mm 3 mps 750 mmHg 73%
    09:00 +19°C° 0 mm 3 mps 751 mmHg 69%
    10:00 +20°C° 0 mm 4 mps 751 mmHg 66%
    11:00 +21°C° 0 mm 4 mps 751 mmHg 64%
    12:00 +22°C° 0 mm 5 mps 752 mmHg 61%
    13:00 +22°C° 0 mm 5 mps 752 mmHg 61%
    14:00 +22°C° 0 mm 5 mps 752 mmHg 61%
    15:00 +22°C° 0 mm 5 mps 752 mmHg 61%
    16:00 +22°C° 0 mm 5 mps 752 mmHg 64%
    17:00 +21°C° 0 mm 4 mps 752 mmHg 66%
    18:00 +21°C° 0 mm 4 mps 752 mmHg 69%
    19:00 +19°C° 0 mm 4 mps 752 mmHg 74%
    20:00 +18°C° 0 mm 4 mps 753 mmHg 78%
    21:00 +17°C° 0 mm 3 mps 753 mmHg 83%
    22:00 +16°C° 0 mm 3 mps 753 mmHg 82%
    23:00 +16°C° 0 mm 3 mps 753 mmHg 82%

    22 July, Monday

    Time Temperature Precipitation Wind Pressure Humidity
    00:00 +14°C° 0 mm 3 mps 753 mmHg 81%
    01:00 +14°C° 0 mm 3 mps 753 mmHg 84%
    02:00 +14°C° 0 mm 4 mps 752 mmHg 86%
    03:00 +14°C° 0 mm 4 mps 752 mmHg 89%
    04:00 +14°C° 0 mm 4 mps 752 mmHg 88%
    05:00 +14°C° 0 mm 4 mps 752 mmHg 87%
    06:00 +15°C° 0 mm 4 mps 752 mmHg 86%
    07:00 +17°C° 0 mm 4 mps 753 mmHg 80%
    08:00 +19°C° 0 mm 4 mps 753 mmHg 75%
    09:00 +20°C° 0 mm 5 mps 753 mmHg 69%
    10:00 +21°C° 0 mm 5 mps 753 mmHg 67%
    11:00 +22°C° 0 mm 5 mps 753 mmHg 64%
    12:00 +23°C° 0 mm 5 mps 753 mmHg 62%
    13:00 +25°C° 0 mm 5 mps 753 mmHg 61%
    14:00 +25°C° 0 mm 5 mps 753 mmHg 60%
    15:00 +26°C° 0 mm 5 mps 753 mmHg 59%
    16:00 +25°C° 0 mm 4 mps 753 mmHg 62%
    17:00 +25°C° 0 mm 4 mps 753 mmHg 65%
    18:00 +24°C° 0 mm 3 mps 752 mmHg 68%
    19:00 +22°C° 0 mm 3 mps 752 mmHg 73%
    20:00 +20°C° 0 mm 3 mps 752 mmHg 78%
    21:00 +19°C° 0 mm 2 mps 752 mmHg 83%
    22:00 +18°C° 0 mm 2 mps 752 mmHg 84%
    23:00 +18°C° 0 mm 2 mps 752 mmHg 85%

    23 July, Tuesday

    Time Temperature Precipitation Wind Pressure Humidity
    00:00 +17°C° 0 mm 2 mps 752 mmHg 87%
    01:00 +17°C° 0 mm 2 mps 752 mmHg 86%
    02:00 +16°C° 0 mm 1 mps 751 mmHg 86%
    03:00 +16°C° 0 mm 1 mps 751 mmHg 85%
    04:00 +18°C° 0 mm 1 mps 751 mmHg 82%
    05:00 +17°C° 0 mm 2 mps 750 mmHg 78%
    06:00 +18°C° 0 mm 2 mps 750 mmHg 75%
    07:00 +20°C° 0 mm 2 mps 750 mmHg 71%
    08:00 +21°C° 0 mm 3 mps 750 mmHg 68%
    09:00 +24°C° 0 mm 3 mps 750 mmHg 65%
    10:00 +26°C° 0 mm 4 mps 749 mmHg 61%
    11:00 +28°C° 0 mm 5 mps 749 mmHg 58%
    12:00 +29°C° 0 mm 5 mps 749 mmHg 55%
    13:00 +30°C° 0 mm 6 mps 748 mmHg 54%
    14:00 +30°C° 0 mm 6 mps 748 mmHg 53%
    15:00 +32°C° 0 mm 6 mps 747 mmHg 52%
    16:00 +32°C° 0 mm 5 mps 747 mmHg 56%
    17:00 +30°C° 0 mm 4 mps 747 mmHg 60%
    18:00 +30°C° 0 mm 4 mps 746 mmHg 64%
    19:00 +28°C° 0 mm 3 mps 746 mmHg 68%
    20:00 +26°C° 0 mm 3 mps 746 mmHg 73%
    21:00 +25°C° 0 mm 2 mps 746 mmHg 77%
    22:00 +24°C° 0.4 mm 2 mps 746 mmHg 80%
    23:00 +23°C° 0.4 mm 2 mps 746 mmHg 83%

    24 July, Wednesday

    Time Temperature Precipitation Wind Pressure Humidity
    00:00 +23°C° 0.4 mm 2 mps 746 mmHg 86%
    01:00 +21°C° 0.2 mm 2 mps 746 mmHg 88%
    02:00 +22°C° 0.2 mm 1 mps 745 mmHg 89%
    03:00 +21°C° 0.2 mm 1 mps 744 mmHg 90%
    04:00 +22°C° 0.1 mm 1 mps 744 mmHg 90%
    05:00 +22°C° 0.1 mm 1 mps 744 mmHg 89%
    06:00 +22°C° 0.1 mm 1 mps 744 mmHg 89%
    07:00 +23°C° 0 mm 2 mps 744 mmHg 85%
    08:00 +24°C° 0 mm 2 mps 744 mmHg 81%
    09:00 +25°C° 0 mm 3 mps 744 mmHg 77%
    10:00 +25°C° 0.1 mm 3 mps 744 mmHg 75%
    11:00 +25°C° 0.1 mm 3 mps 744 mmHg 73%
    12:00 +25°C° 0.1 mm 2 mps 744 mmHg 72%
    13:00 +25°C° 0 mm 2 mps 744 mmHg 68%
    14:00 +26°C° 0 mm 2 mps 744 mmHg 64%
    15:00 +27°C° 0 mm 2 mps 743 mmHg 61%
    16:00 +26°C° 0 mm 2 mps 743 mmHg 64%
    17:00 +25°C° 0 mm 2 mps 743 mmHg 68%
    18:00 +24°C° 0 mm 2 mps 743 mmHg 71%
    19:00 +23°C° 0.6 mm 2 mps 743 mmHg 73%
    20:00 +21°C° 0.6 mm 2 mps 742 mmHg 76%
    21:00 +19°C° 0.6 mm 2 mps 742 mmHg 78%
    22:00 +19°C° 1.2 mm 2 mps 742 mmHg 80%
    23:00 +18°C° 1.2 mm 2 mps 741 mmHg 82%
    Show more